Location: Combe-Br�mond
(44.5939°N, 6.8566°E)
Time: 06:43:23
(UTC+00:00)

Daily predictions for brighter satellites

Satellite Brightness Start Highest point End
(mag) Time Altitude Azimuth Time Altitude Azimuth Time Altitude Azimuth
Cosmos 1867 4.2 17:57:05 10° NNW 18:02:15 40° NE 18:07:22 10° ESE
Lacrosse 5 rocket 3.3 18:03:02 10° W 18:06:42 28° NNW 18:10:32 10° NE
CSL-04 Debris 4.3 18:02:06 10° SSE 18:07:22 59° ENE 18:12:40 10° N
Cosmos 1939 Rocket 3.9 18:05:46 10° S 18:09:47 53° W 18:13:52 10° NNW
CZ-2D R/B 3.7 18:05:59 10° S 18:09:50 68° WSW 18:13:44 10° NNW
Sich 1 Rocket 4.2 18:06:23 10° SSE 18:10:29 36° E 18:14:38 10° NNE
Meteor 1-21 4.2 18:08:48 10° N 18:14:24 67° ENE 18:19:57 10° SSE
Helios 1A Rocket 4.2 18:10:37 10° S 18:14:33 45° W 18:18:31 10° NNW
Cosmos 807 4.4 18:11:53 10° S 18:14:54 55° E 18:18:27 10° NNE
MOS 1 Rocket 3.6 18:11:09 10° NNE 18:15:17 36° E 18:19:14 10° SSE
CSL-04 Rocket 3.7 18:10:27 10° SSE 18:15:48 66° ENE 18:21:16 10° N
Cosmos 1603 3.8 18:10:27 10° NNW 18:16:10 87° WSW 18:21:47 10° SSE
SJ 16-02 3.0 18:14:12 10° SW 18:18:19 39° WNW 18:22:27 10° N
Cosmos 2112 Rocket 4.5 18:16:13 10° NNW 18:21:23 65° WSW 18:26:32 10° S
Cosmos 1937 Rocket 3.5 18:16:43 10° SSW 18:21:59 80° ESE 18:27:13 10° NNE
Cosmos 1680 Rocket 4.5 18:19:47 10° NNW 18:24:51 51° WSW 18:29:55 10° S
Okean 2 Rocket 3.7 18:24:55 10° SSE 18:29:02 36° E 18:33:08 10° NNE
Abrixas rocket 2.9 18:26:37 10° W 18:29:20 40° N 18:31:44 12° ENE
Cosmos 1464 Rocket 4.2 18:24:48 10° SSE 18:30:36 47° E 18:36:27 10° NNE
NOSS 2-2 (E) 3.0 18:27:41 10° SSW 18:31:08 76° SE 18:35:00 10° NE
SL-08 RB Rocket 4.3 18:27:27 10° SE 18:31:41 38° ENE 18:35:55 10° N
Okean-O 4.1 18:31:06 10° SSW 18:35:15 39° W 18:39:26 10° NNW
USA 116 3.8 18:32:19 10° N 18:35:45 72° WNW 18:39:36 10° SSW
Okean 2 4.3 18:32:32 10° NNW 18:36:37 54° W 18:40:40 10° S
ATLAS 2AS CENTAUR R/B 4.2 18:32:23 10° SE 18:36:51 16° ESE 18:41:19 10° ENE
Cosmos 1300 Rocket 3.9 18:33:28 10° SSE 18:37:36 42° E 18:41:48 10° NNE
CZ-2C R/B 2.9 18:36:04 10° SW 18:38:26 17° S 18:39:59 13° SSE
NOSS 2-2 (D) 2.9 18:36:21 10° SSW 18:39:49 72° SE 18:43:37 10° NE
Iridium 4 Rocket 4.4 18:38:57 10° SSW 18:43:44 52° W 18:49:00 10° N
USA 102 3.8 18:38:58 13° SE 18:44:05 37° E 18:45:14 27° NE
YAOGAN 1 3.9 18:40:29 10° S 18:44:36 43° W 18:48:44 10° NNW
Cosmos 1975 4.3 18:41:33 10° SSW 18:45:26 42° WNW 18:49:21 10° N
CENTAUR R/B 3.8 18:38:37 10° NNW 18:46:01 41° NE 18:51:59 18° E
BREEZE-M R/B 4.5 18:30:43 10° SW 18:46:01 75° SSE 18:48:53 17° ENE
H-2A R/B 2.1 18:43:43 10° S 18:48:40 79° WSW 18:53:45 10° NNW
CZ-4 R/B 3.5 18:46:19 10° SSW 18:50:03 30° W 18:53:48 10° NNW
Cosmos 1437 4.4 18:48:28 10° NNW 18:51:12 32° W 18:53:55 10° SSW
Cosmos 1674 3.8 18:48:33 10° NNE 18:51:45 24° ENE 18:52:10 24° E
ATLAS 3B R/B 4.3 18:47:27 10° NNW 18:52:23 21° NNE 18:56:56 12° ENE
Exosat Rocket 4.3 18:48:28 10° SSE 18:53:24 30° ESE 18:57:46 10° NE
ISS -3.9 18:50:54 10° SW 18:54:16 80° SSE 18:56:09 24° ENE
Cosmos 1048 Rocket 4.4 18:49:57 10° N 18:55:02 44° ENE 18:58:02 23° ESE
Cosmos 1536 Rocket 3.9 18:52:04 10° N 18:56:21 46° ENE 18:58:59 21° SE
USA 238 DEB 4.1 18:50:37 10° NNW 18:57:41 55° NE 19:02:30 22° ESE
USA 238 4.1 18:50:43 10° NNW 18:57:47 55° NE 19:02:34 22° ESE
Cosmos 1891 Rocket 4.4 18:51:53 10° S 18:58:01 81° E 19:04:07 10° N
In-Cosmos 22 4.0 18:53:41 10° N 18:58:59 68° ENE 19:04:18 10° SSE
ARGOS 3.2 18:56:49 10° S 19:02:11 80° WSW 19:07:35 10° NNW
Cosmos 1025 Rocket 2.9 19:01:59 10° N 19:06:23 79° E 19:10:01 15° SSE
CZ-2C R/B 2.7 19:01:08 10° NNE 19:06:36 59° E 19:12:07 10° S
Cosmos 1707 3.1 19:05:48 10° NNW 19:09:36 63° W 19:13:22 10° S
Cosmos 2151 Rocket 3.5 19:05:58 10° S 19:10:23 71° E 19:14:53 10° NNE
KORONAS-FOTON 4.2 19:09:41 10° N 19:13:26 41° ENE 19:13:36 40° E
USA 186 1.8 19:13:02 33° S 19:14:18 75° WSW 19:17:32 10° NNW
Ariane Rocket 2.9 19:12:56 15° SSE 19:17:07 87° ENE 19:22:13 10° NNW
SJ-6B 2.5 19:16:15 39° SSE 19:17:33 77° ENE 19:21:19 10° N
Cosmos 1844 3.8 19:14:08 10° S 19:19:38 51° ESE 19:25:06 10° NE
FREGAT/IRIS 3.3 19:20:39 40° N 19:20:39 40° N 19:22:27 10° N
Cosmos 2263 Rocket 4.1 19:17:02 10° WSW 19:21:56 31° NW 19:26:53 10° N
Nadezhda 4 Rocket 3.8 19:17:50 10° N 19:23:59 84° E 19:29:17 14° S
NOSS 2-2 (C) 4.4 19:21:11 10° WSW 19:24:31 40° NW 19:28:15 10° NNE
Cosmos 494 Rocket 4.2 19:19:38 10° NNW 19:24:47 51° ENE 19:26:05 41° ESE
NOSS 3-2 (A) 4.0 19:17:56 10° NW 19:25:30 81° NE 19:30:19 29° SE
MOS 1 4.2 19:21:25 18° SSE 19:25:47 88° ENE 19:31:33 10° NNW
Cosmos 2034 Rocket 4.0 19:21:46 10° S 19:28:09 89° WNW 19:34:32 10° N
Cosmos 1844 Rocket 2.5 19:22:47 10° SSW 19:28:19 74° ESE 19:33:54 10° NNE
Cosmos 2298 Rocket 4.1 19:25:24 10° SSW 19:30:44 79° WNW 19:36:06 10° NNE
SPOT 3 Rocket 3.6 19:32:57 47° ESE 19:34:05 58° ENE 19:39:08 10° N
Resurs 01 Rocket 2.0 19:42:54 47° NE 19:42:54 47° NE 19:46:42 10° N
USA 234 3.1 19:37:13 10° NE 19:43:43 66° SE 19:50:13 10° SW
SWAS 4.4 19:41:48 10° NNW 19:45:52 69° NE 19:45:52 69° NE
MetOp-A 4.4 19:42:59 25° S 19:46:09 68° WSW 19:51:31 10° NNW
Lacrosse 5 rocket 3.9 19:44:18 10° NW 19:47:08 17° N 19:49:28 12° NNE
OBJECT-B 2.3 19:52:33 35° NNW 19:52:33 35° NNW 19:54:37 10° NNW
Cosmos 1833 Rocket 3.9 19:46:45 10° N 19:51:25 27° NE 19:51:25 27° NE
Meteor 1-15 Rocket 4.3 19:47:04 10° SSW 19:52:40 75° WNW 19:58:24 10° N
Cosmos 1626 3.9 19:54:25 10° N 19:56:03 24° N 19:56:03 24° N
ARIANE 5 R/B 3.9 20:01:02 29° NNE 20:01:02 29° NNE 20:03:31 10° N
NOSS 3-2 (C) 4.0 19:52:44 10° NW 20:00:20 84° NE 20:03:03 48° SE
Cosmos 1634 Rocket 3.8 19:59:03 49° SSE 20:00:45 75° E 20:06:57 10° NNE
BREEZE-M TANK 2.8 19:57:40 10° W 20:04:38 81° W 20:04:38 81° W
Cosmos 2285 Rocket 4.0 20:01:55 10° SSW 20:08:13 79° WNW 20:14:36 10° NNE
Cosmos 1125 Rocket 3.9 20:03:04 10° SSW 20:08:19 62° WNW 20:13:36 10° NNE
Okean 1 Rocket 3.5 20:08:19 60° W 20:08:34 61° W 20:13:02 10° N
Cosmos 1092 Rocket 4.5 20:17:25 10° NNW 20:23:25 56° W 20:25:37 37° SSW
Meteor 2-5 Rocket 4.1 20:19:07 10° NNW 20:24:40 61° W 20:25:28 55° SW
ATLAS 2AS CENTAUR R/B 2.9 20:18:44 10° SSW 20:26:37 73° ESE 20:34:30 10° NE
Cosmos 2026 Rocket 4.2 20:23:23 10° NNW 20:29:42 67° W 20:30:53 56° SW
ISS -0.6 20:28:21 10° WNW 20:29:08 15° WNW 20:29:08 15° WNW
Cosmos 2082 Rocket 3.5 20:28:40 10° N 20:32:16 28° NNE 20:32:16 28° NNE
CENTAUR R/B 3.3 20:29:14 10° NW 20:37:22 69° WSW 20:39:10 57° S
Cosmos 2279 Rocket 4.1 20:44:35 68° N 20:44:35 68° N 20:50:03 10° N
COSMOS 2406 3.7 20:38:49 10° NNW 20:43:10 54° NNW 20:43:10 54° NNW
ATLAS 3B R/B 3.0 20:37:47 10° NNW 20:44:10 58° NNE 20:44:10 58° NNE
Meteor 1-24 Rocket 4.4 20:42:04 10° NNW 20:47:08 50° W 20:47:08 50° W
Terra 4.1 21:02:36 18° N 21:02:36 18° N 21:03:57 10° N
Lacrosse 4 Rocket 4.4 21:06:14 10° NNW 21:06:37 12° NNW 21:06:37 12° NNW
Resurs 01 Rocket 4.3 21:20:28 15° WNW 21:20:28 15° WNW 21:22:08 10° NW
USA 234 4.0 21:24:43 39° NNE 21:26:36 49° NNW 21:32:50 10° W
Lacrosse 5 rocket 4.4 21:24:04 10° NNW 21:25:05 15° NNW 21:25:05 15° NNW
Cosmos 1833 Rocket 4.4 21:30:15 10° NNW 21:33:07 29° NW 21:33:07 29° NW
ATLAS 2AS CENTAUR R/B 4.2 22:11:00 10° WSW 22:18:16 37° NW 22:25:26 10° NNE
